Total_Precipitation_Accumulation
2.27 2.47 2.85 3.24 3.52 3.70 3.81 4.14 4.30 4.07 3.63 3.23 2.76 2.62 2.56 2.34 2.14 2.06 1.89 2.06 2.02 2.26 2.62 2.36 2.64 2.29 2.32 2.49 2.55 2.79 2.71 2.40 2.33 2.73 2.76 2.18 1.74 1.81 1.71 1.66 1.87 1.87 1.99
1.89 1.97 2.11 2.45 2.66 2.90 3.19 3.54 3.76 3.63 3.07 2.82 2.64 2.53 2.50 2.33 2.32 2.23 2.22 1.98 1.98 2.22 2.28 2.62 2.42 2.44 2.56 2.59 2.69 2.84 2.83 2.53 2.45 2.86 3.20 2.80 2.69 2.33 1.58 1.66 1.80 1.82 2.05
1.61 1.72 1.76 1.87 2.12 2.71 2.94 2.83 3.07 3.25 2.97 2.86 2.82 2.72 2.69 2.49 2.57 2.52 2.40 2.02 1.90 1.91 2.10 2.29 2.30 2.52 2.33 2.66 2.90 2.85 2.95 2.94 2.74 2.79 3.21 3.20 3.05 2.56 2.00 1.63 1.62 1.84 2.22
1.20 1.41 1.38 1.45 1.68 1.99 2.29 2.64 2.95 3.03 2.93 2.80 2.64 2.54 2.34 2.27 2.29 2.27 2.27 2.16 2.03 1.90 1.98 2.15 2.43 2.59 2.32 2.84 2.45 2.58 2.84 2.99 2.80 2.79 2.62 2.72 2.94 2.99 2.74 2.21 1.74 1.73 1.95
0.75 0.93 1.07 1.20 1.28 1.42 1.83 2.40 2.88 3.10 2.98 2.64 2.51 2.63 2.48 2.38 2.33 2.20 2.39 2.24 2.08 1.90 1.82 2.11 2.38 2.50 2.37 2.53 2.58 2.86 2.76 2.71 2.70 2.75 2.81 2.92 2.87 2.64 2.78 2.70 2.36 2.05 1.62
0.55 0.64 0.77 1.00 1.14 1.23 1.49 1.95 2.38 2.66 2.71 2.57 2.45 2.51 2.59 2.55 2.41 2.26 2.23 2.05 2.00 1.94 1.86 2.06 2.36 2.34 2.36 2.54 2.52 2.67 2.67 2.73 2.82 2.66 2.60 2.84 2.82 2.72 2.80 2.50 2.30 2.22 1.62
0.53 0.66 0.74 0.88 0.91 0.98 1.25 1.57 1.80 2.00 2.22 2.37 2.41 2.36 2.51 2.56 2.35 2.13 2.18 2.13 1.97 1.96 2.02 2.16 2.44 2.35 2.42 2.48 2.71 2.80 2.72 2.71 2.75 2.60 2.45 2.43 2.32 2.45 2.64 2.71 2.37 2.13 1.65
0.54 0.65 0.80 0.88 0.83 0.87 1.10 1.33 1.53 1.76 2.02 2.18 2.25 2.21 2.17 2.08 2.04 2.16 2.07 2.08 2.05 1.98 1.91 2.04 2.08 2.07 2.17 2.26 2.76 2.61 2.56 2.66 2.59 2.34 2.60 2.48 2.13 2.25 2.42 2.69 2.94 2.66 2.19
0.67 0.76 0.90 0.95 0.85 0.91 1.10 1.24 1.46 1.63 1.75 2.01 2.18 2.09 2.05 1.91 1.89 1.94 1.90 1.85 2.01 1.98 1.91 1.86 1.90 1.96 2.13 2.31 2.51 2.43 2.52 2.73 2.58 2.49 2.64 2.44 2.20 2.17 2.11 2.44 2.90 3.22 2.94
0.84 0.96 0.97 1.00 0.96 1.02 1.22 1.27 1.37 1.46 1.49 1.66 1.74 1.63 1.81 1.83 1.95 1.93 1.84 1.78 1.79 1.84 1.90 1.98 1.97 2.01 2.08 2.29 2.49 2.50 2.65 2.75 2.62 2.62 2.69 2.55 2.31 2.39 2.22 2.27 2.62 2.93 3.12
0.85 0.96 0.93 0.93 0.90 0.96 1.06 1.07 1.20 1.31 1.36 1.51 1.59 1.65 1.74 1.80 1.85 1.89 1.88 1.88 1.89 1.91 1.91 2.01 2.06 2.07 2.08 2.26 2.43 2.34 2.58 2.74 2.79 2.62 2.59 2.55 2.58 2.59 2.43 2.51 2.62 2.69 3.00
0.66 0.88 0.95 0.99 0.80 0.85 0.92 0.98 1.11 1.23 1.30 1.47 1.60 1.67 1.85 1.89 1.84 1.89 2.08 2.09 2.04 2.01 2.00 2.08 2.16 2.14 2.16 2.31 2.30 2.15 2.27 2.48 2.68 2.90 3.03 2.78 2.78 2.79 2.62 2.63 2.63 2.69 2.93
0.68 0.84 0.93 0.86 0.77 0.80 0.87 0.91 1.01 1.14 1.24 1.39 1.54 1.75 1.85 1.92 2.06 2.23 2.39 2.41 2.32 2.26 2.26 2.33 2.26 2.28 2.34 2.33 2.24 2.26 2.29 2.39 2.47 2.73 2.98 2.96 3.10 2.86 2.88 2.81 2.70 2.71 2.73
0.64 0.65 0.82 0.88 0.81 0.78 0.81 0.86 1.00 1.14 1.31 1.57 1.75 1.89 2.09 2.23 2.34 2.31 2.38 2.40 2.40 2.42 2.43 2.48 2.41 2.37 2.41 2.42 2.42 2.42 2.38 2.44 2.41 2.46 2.59 2.70 2.98 2.95 3.00 2.84 2.86 2.99 3.06
0.62 0.76 0.89 1.06 1.05 0.97 0.90 0.93 1.16 1.38 1.60 1.87 1.97 2.01 2.11 2.25 2.44 2.60 2.62 2.59 2.55 2.48 2.65 2.63 2.55 2.56 2.57 2.36 2.50 2.72 2.69 2.74 2.53 2.44 2.40 2.37 2.61 2.69 2.75 2.51 2.68 2.97 3.04
0.73 0.89 1.03 1.18 1.28 1.31 1.29 1.32 1.47 1.73 2.04 2.35 2.48 2.59 2.67 2.75 2.85 2.94 2.96 2.98 2.91 2.85 2.77 2.65 2.70 2.69 2.46 2.60 2.68 2.61 2.64 2.84 2.82 2.69 2.61 2.47 2.42 2.41 2.44 2.48 2.55 2.70 2.72
0.88 1.00 1.11 1.20 1.36 1.41 1.49 1.68 1.86 2.10 2.33 2.52 2.63 2.76 2.85 3.00 3.14 3.18 3.20 3.05 2.98 2.89 2.77 2.77 2.81 2.74 2.76 2.75 2.54 2.40 2.39 2.47 2.57 2.64 2.62 2.34 2.20 2.42 2.31 2.48 2.49 2.31 2.24
1.03 1.07 1.14 1.27 1.37 1.50 1.68 1.88 2.03 2.16 2.47 2.70 2.80 2.86 2.91 2.97 3.15 3.34 3.25 3.08 3.03 2.96 2.91 2.85 2.73 2.66 2.56 2.61 2.38 2.37 2.24 2.18 2.14 2.27 2.39 2.33 2.23 2.27 2.37 2.29 2.06 1.85 1.85
1.02 1.09 1.21 1.32 1.46 1.53 1.60 1.62 1.74 1.94 2.19 2.42 2.62 2.64 2.78 2.95 3.04 3.07 3.08 3.14 3.11 2.90 2.74 2.63 2.60 2.55 2.61 2.84 2.58 2.42 2.18 2.16 2.02 2.01 2.01 2.04 1.92 2.07 2.17 2.06 1.84 1.69 1.63
1.08 1.17 1.32 1.39 1.40 1.43 1.47 1.54 1.70 1.94 2.15 2.37 2.58 2.76 2.91 3.05 3.07 3.09 3.20 3.22 3.18 3.15 3.10 2.97 2.88 2.78 2.75 2.97 2.71 2.49 2.23 2.20 2.13 2.11 2.07 2.13 1.90 1.83 1.78 1.70 1.71 1.53 1.44
1.05 1.15 1.30 1.46 1.48 1.46 1.63 1.81 1.95 2.10 2.28 2.41 2.51 2.65 2.84 3.06 3.31 3.48 3.39 3.36 3.32 3.24 3.06 2.89 2.75 2.70 2.69 2.66 2.48 2.31 2.02 1.96 2.01 1.88 1.76 1.79 1.81 1.60 1.45 1.43 1.39 1.33 1.40
0.99 1.18 1.31 1.44 1.58 1.68 1.84 2.00 2.05 2.11 2.32 2.53 2.62 2.69 2.88 2.95 3.10 3.37 3.37 3.29 3.25 3.17 3.06 2.99 2.90 2.80 2.64 2.41 2.19 2.05 1.89 1.86 1.80 1.83 1.82 1.86 1.88 1.63 1.48 1.32 1.20 1.26 1.27
1.06 1.18 1.31 1.45 1.56 1.74 1.93 2.09 2.18 2.24 2.35 2.49 2.65 2.83 2.94 2.99 3.10 3.28 3.33 3.29 3.20 3.08 2.94 2.79 2.58 2.56 2.60 2.51 2.28 2.00 1.81 1.76 1.65 1.81 2.11 2.14 2.07 1.83 1.55 1.44 1.45 1.41 1.28
1.26 1.31 1.39 1.47 1.57 1.67 1.87 2.07 2.20 2.25 2.37 2.44 2.50 2.65 2.80 2.93 3.09 3.11 2.99 2.86 2.73 2.66 2.62 2.45 2.32 2.35 2.42 2.31 2.21 2.04 1.93 1.91 1.79 1.81 2.08 2.24 2.22 2.07 1.86 1.76 1.68 1.49 1.43
1.34 1.39 1.47 1.58 1.61 1.65 1.74 1.98 2.19 2.29 2.34 2.46 2.53 2.51 2.53 2.62 2.78 2.85 2.81 2.69 2.52 2.39 2.32 2.19 2.19 2.18 2.15 2.19 2.23 2.04 1.92 1.91 1.96 2.03 2.20 2.33 2.41 2.41 2.34 2.24 2.15 2.03 1.88
1.45 1.48 1.52 1.55 1.59 1.70 1.81 1.91 2.19 2.46 2.55 2.54 2.41 2.32 2.24 2.25 2.31 2.33 2.36 2.49 2.37 2.36 2.22 2.09 2.01 1.94 1.98 2.04 2.00 1.90 1.84 1.86 1.98 1.99 2.06 2.29 2.48 2.56 2.63 2.66 2.54 2.32 2.13